Weather History for KPOV - December, 2013

Change the Weather History Date:

Thursday, December 19, 2013

  Actual Average (KCAK) Record (KCAK)
Temperature  
Mean Temperature 36 °F 29 °F  
Max Temperature 43 °F 36 °F 58 °F (1939)
Min Temperature 29 °F 23 °F -2 °F (1963)
Degree Days  
Heating Degree Days 29 36  
Month to date heating degree days 626  
Since 1 July heating degree days 1885  
Cooling Degree Days 0 0  
Month to date cooling degree days 0  
Year to date cooling degree days 652  
Moisture  
Dew Point 24 °F    
Average Humidity 58    
Maximum Humidity 79    
Minimum Humidity 45    
Precipitation  
Precipitation 0.12 in 0.08 in 0.97 in (2008)
Month to date precipitation 1.79  
Year to date precipitation 38.57  
Snow  
Snow 0.00 in 0.40 in - ()
Month to date snowfall 5.9  
Since 1 July snowfall 9.3  
Snow Depth -    
Sea Level Pressure  
Sea Level Pressure 29.99 in    
Wind  
Wind Speed 7 mph (SW)    
Max Wind Speed 13 mph    
Max Gust Speed 23 mph    
Visibility 10 miles    
Events      
T = Trace of Precipitation, MM = Missing Value Source: NWS Daily Summary

Daily Weather History Graph

Daily Weather History Graph

Search for Another Location

Airport or City:

Trip Planner

Search our weather history database for the weather conditions in past years. The results will help you decide how hot, cold, wet, or windy it might be!

Date:

Astronomy

Dec. 19, 2013 Rise Set
Actual Time 7:46 AM EST 4:58 PM EST
Civil Twilight 7:14 AM EST 5:29 PM EST
Nautical Twilight 6:40 AM EST 6:04 PM EST
Astronomical Twilight 6:06 AM EST 6:38 PM EST
Moon 7:24 PM EST (12/19) 9:02 AM EST (12/19)
Length of Visible Light 10h 14m
Length of Day
9h 12m
Waning Gibbous, 95% of the Moon is Illuminated
Dec 19
Waning Gibbous
Dec 25
Last Quarter
Jan 1
New
Jan 7
First Quarter
Jan 15
Full

Hourly Weather History & Observations

Time (EST) Temp. Windchill Dew Point Humidity Pressure Visibility Wind Dir Wind Speed Gust Speed Precip Events Conditions
12:15 AM 29.5 °F 22.5 °F 15.8 °F 57% 29.98 in 10.0 mi SW 6.9 mph - N/A   Clear
12:34 AM 29.8 °F 22.2 °F 15.8 °F 56% 29.98 in 10.0 mi SW 8.1 mph - N/A   Clear
12:55 AM 30.9 °F 24.3 °F 15.4 °F 53% 29.97 in 10.0 mi SW 6.9 mph - N/A   Clear
1:15 AM 31.5 °F 25.8 °F 14.9 °F 50% 29.96 in 10.0 mi SW 5.8 mph - N/A   Clear
1:34 AM 31.8 °F 25.4 °F 14.7 °F 49% 29.96 in 10.0 mi SW 6.9 mph - N/A   Clear
1:55 AM 33.1 °F 23.9 °F 14.0 °F 46% 29.96 in 10.0 mi SW 12.7 mph 17.3 mph N/A   Clear
2:15 AM 33.6 °F 24.6 °F 14.7 °F 46% 29.95 in 10.0 mi SW 12.7 mph 20.7 mph N/A   Clear
2:34 AM 34.2 °F 25.7 °F 14.7 °F 45% 29.95 in 10.0 mi SW 11.5 mph 21.9 mph N/A   Clear
2:54 AM 34.2 °F 26.8 °F 15.4 °F 46% 29.96 in 10.0 mi SW 9.2 mph 23.0 mph N/A   Clear
3:15 AM 33.8 °F 25.8 °F 15.6 °F 47% 29.96 in 10.0 mi WSW 10.4 mph 21.9 mph N/A   Clear
3:35 AM 33.4 °F 25.4 °F 15.8 °F 48% 29.96 in 10.0 mi WSW 10.4 mph - N/A   Clear
3:54 AM 33.1 °F 26.1 °F 16.2 °F 50% 29.96 in 10.0 mi SW 8.1 mph - N/A   Clear
4:15 AM 32.9 °F 24.7 °F 16.5 °F 51% 29.96 in 10.0 mi SW 10.4 mph 16.1 mph N/A   Clear
4:35 AM 33.1 °F 26.1 °F 16.7 °F 51% 29.96 in 10.0 mi SW 8.1 mph 16.1 mph N/A   Clear
4:54 AM 32.7 °F 25.0 °F 16.9 °F 52% 29.96 in 10.0 mi SW 9.2 mph - N/A   Clear
5:15 AM 32.4 °F 25.3 °F 17.1 °F 53% 29.96 in 10.0 mi SW 8.1 mph - N/A   Clear
5:34 AM 32.4 °F 25.3 °F 17.4 °F 54% 29.96 in 10.0 mi SW 8.1 mph - N/A   Clear
5:55 AM 32.4 °F 25.3 °F 17.6 °F 55% 29.96 in 10.0 mi SW 8.1 mph - N/A   Clear
6:15 AM 32.2 °F 25.0 °F 18.0 °F 56% 29.96 in 10.0 mi SW 8.1 mph - N/A   Clear
6:34 AM 32.5 °F 25.5 °F 18.5 °F 56% 29.97 in 10.0 mi SW 8.1 mph - N/A   Clear
6:54 AM 32.9 °F 27.5 °F 18.7 °F 56% 29.97 in 10.0 mi SSW 5.8 mph - N/A   Clear
7:15 AM 32.5 °F 27.1 °F 18.9 °F 57% 29.98 in 10.0 mi SSW 5.8 mph - N/A   Clear
7:34 AM 32.5 °F 26.2 °F 19.2 °F 58% 29.98 in 10.0 mi SW 6.9 mph - N/A   Clear
7:55 AM 32.5 °F 25.5 °F 19.4 °F 58% 29.98 in 10.0 mi SSW 8.1 mph - N/A   Clear
8:15 AM 32.5 °F 25.5 °F 19.4 °F 58% 29.99 in 10.0 mi SW 8.1 mph - N/A   Clear
8:34 AM 33.1 °F 28.7 °F 19.9 °F 59% 29.99 in 10.0 mi SSW 4.6 mph - N/A   Clear
8:54 AM 33.8 °F 26.4 °F 20.5 °F 58% 29.99 in 10.0 mi SW 9.2 mph - N/A   Clear
9:15 AM 34.7 °F 28.8 °F 21.0 °F 57% 30.00 in 10.0 mi SSW 6.9 mph - N/A   Clear
9:35 AM 36.0 °F 29.6 °F 21.7 °F 56% 30.00 in 10.0 mi SSW 8.1 mph - N/A   Clear
9:54 AM 37.6 °F 31.0 °F 22.6 °F 55% 30.01 in 10.0 mi SW 9.2 mph - N/A   Clear
10:15 AM 39.2 °F 33.6 °F 23.7 °F 54% 30.01 in 10.0 mi SW 8.1 mph 18.4 mph 0.01 in   Clear
10:35 AM 39.6 °F 33.5 °F 24.4 °F 55% 30.03 in 10.0 mi SW 9.2 mph - 0.02 in   Clear
10:54 AM 40.5 °F 35.1 °F 24.8 °F 54% 30.03 in 10.0 mi SW 8.1 mph - 0.06 in   Clear
11:15 AM 41.0 °F 35.8 °F 25.2 °F 53% 30.03 in 10.0 mi SSW 8.1 mph - 0.04 in   Clear
11:34 AM 41.7 °F 36.7 °F 25.5 °F 53% 30.03 in 10.0 mi SW 8.1 mph - 0.06 in   Clear
11:55 AM 42.6 °F 39.0 °F 26.2 °F 52% 30.02 in 10.0 mi SW 5.8 mph - 0.06 in   Clear
12:15 PM 43.7 °F 37.3 °F 26.4 °F 51% 30.02 in 10.0 mi SW 12.7 mph 18.4 mph N/A   Clear
12:34 PM 43.3 °F 37.7 °F 26.6 °F 52% 30.01 in 10.0 mi WSW 10.4 mph 18.4 mph N/A   Clear
12:54 PM 43.3 °F 39.9 °F 26.8 °F 52% 30.00 in 10.0 mi SW 5.8 mph - N/A   Clear
1:15 PM 43.0 °F 38.8 °F 27.1 °F 54% 30.00 in 10.0 mi SSW 6.9 mph - N/A   Clear
1:35 PM 43.0 °F 38.8 °F 27.3 °F 54% 30.00 in 10.0 mi SW 6.9 mph - N/A   Clear
1:54 PM 43.3 °F 39.2 °F 27.3 °F 53% 30.00 in 10.0 mi SW 6.9 mph - N/A   Clear
2:15 PM 43.7 °F 41.1 °F 27.5 °F 53% 30.01 in 10.0 mi SW 4.6 mph - N/A   Clear
2:35 PM 43.7 °F 41.1 °F 28.0 °F 54% 30.00 in 10.0 mi SW 4.6 mph - N/A   Clear
2:54 PM 43.7 °F 40.3 °F 28.2 °F 54% 30.00 in 10.0 mi SW 5.8 mph - N/A   Clear
3:15 PM 43.2 °F 39.7 °F 28.4 °F 56% 30.01 in 10.0 mi SW 5.8 mph - N/A   Clear
3:35 PM 43.2 °F 40.5 °F 28.8 °F 57% 30.01 in 10.0 mi SW 4.6 mph - N/A   Clear
3:54 PM 43.2 °F 39.0 °F 29.1 °F 58% 30.01 in 10.0 mi SW 6.9 mph - N/A   Clear
4:15 PM 42.8 °F 40.1 °F 29.3 °F 59% 30.01 in 10.0 mi SSW 4.6 mph - N/A   Clear
4:35 PM 42.3 °F 38.6 °F 29.5 °F 61% 30.02 in 10.0 mi SW 5.8 mph - N/A   Clear
4:54 PM 42.4 °F 40.7 °F 29.8 °F 61% 30.01 in 10.0 mi SW 3.5 mph - N/A   Clear
5:15 PM 41.9 °F 40.0 °F 30.2 °F 63% 30.02 in 10.0 mi SW 3.5 mph - N/A   Clear
5:34 PM 41.9 °F 40.0 °F 30.2 °F 63% 30.02 in 10.0 mi SSW 3.5 mph - N/A   Clear
5:55 PM 41.5 °F 39.6 °F 30.6 °F 65% 30.02 in 10.0 mi SW 3.5 mph - N/A   Clear
6:15 PM 41.4 °F - 30.7 °F 66% 30.01 in 10.0 mi Calm Calm - N/A   Clear
6:34 PM 39.9 °F - 30.9 °F 70% 30.01 in 10.0 mi Calm Calm - N/A   Clear
6:55 PM 40.8 °F - 31.1 °F 68% 30.01 in 10.0 mi Calm Calm - N/A   Mostly Cloudy
7:15 PM 38.5 °F - 31.6 °F 76% 30.01 in 10.0 mi Calm Calm - N/A   Overcast
7:34 PM 42.8 °F - 31.6 °F 65% 30.00 in 10.0 mi Calm Calm - N/A   Overcast
7:55 PM 41.5 °F - 31.3 °F 67% 30.00 in 10.0 mi Calm Calm - N/A   Overcast
8:15 PM 40.1 °F - 31.5 °F 71% 30.00 in 10.0 mi Calm Calm - N/A   Overcast
8:35 PM 37.8 °F - 31.6 °F 79% 29.99 in 10.0 mi Calm Calm - N/A   Overcast
8:54 PM 37.9 °F - 31.3 °F 77% 29.99 in 10.0 mi Calm Calm - N/A   Overcast
9:15 PM 39.6 °F - 31.6 °F 73% 29.99 in 10.0 mi Calm Calm - N/A   Overcast
9:35 PM 38.7 °F - 31.1 °F 74% 29.99 in 10.0 mi Calm Calm - N/A   Overcast
9:55 PM 40.1 °F - 31.6 °F 72% 29.98 in 10.0 mi Calm Calm - N/A   Overcast
10:15 PM 42.1 °F - 31.5 °F 66% 29.98 in 10.0 mi Calm Calm - N/A   Overcast
10:34 PM 42.6 °F 40.9 °F 31.5 °F 65% 29.97 in 10.0 mi South 3.5 mph - N/A   Overcast
10:55 PM 43.2 °F - 31.5 °F 63% 29.96 in 10.0 mi Calm Calm - N/A   Overcast
11:15 PM 42.8 °F - 31.3 °F 64% 29.96 in 10.0 mi Calm Calm - N/A   Overcast
11:35 PM 43.7 °F 41.1 °F 31.5 °F 62% 29.96 in 10.0 mi South 4.6 mph - N/A   Overcast
11:54 PM 43.7 °F 42.1 °F 31.5 °F 62% 29.95 in 10.0 mi SW 3.5 mph - N/A   Overcast